YACHTS Weather Reports


time (UTC)temp
C
wind
direction
speed
KPH
gust
KPH
rain 1hr
cm
rain 24hr
cm
rain mn
cm
humidity
%
barometer
mb
20260905222353 14 271 0.0 11.3 0.00 0.20 0.03 93 1016.3
20260905220814 15 266 8.0 12.9 0.00 0.20 0.03 93 1016.4
20260905220301 14 289 8.0 12.9 0.00 0.20 0.03 94 1016.3
20260905215748 14 277 4.8 11.3 0.00 0.20 0.03 94 1016.3
20260905215236 14 291 6.4 11.3 0.00 0.20 0.03 94 1016.3
20260905214722 14 280 8.0 11.3 0.00 0.20 0.03 94 1016.3
20260905214209 14 285 6.4 12.9 0.00 0.20 0.03 94 1016.4
20260905213656 14 267 3.2 12.9 0.00 0.20 0.03 94 1016.4
20260905213143 15 303 8.0 12.9 0.00 0.20 0.03 94 1016.4
20260905212630 14 302 4.8 11.3 0.00 0.20 0.03 94 1016.4
20260905212117 14 285 4.8 9.7 0.00 0.20 0.03 94 1016.5
20260905211604 14 305 4.8 11.3 0.00 0.20 0.03 94 1016.5
20260905211051 14 284 8.0 11.3 0.00 0.20 0.03 94 1016.5
20260905210538 15 275 8.0 11.3 0.00 0.20 0.03 94 1016.5
20260905210025 14 261 4.8 12.9 0.00 0.20 0.03 94 1016.5
20260905205512 14 0 0.0 12.9 0.00 0.20 0.03 94 1016.5
20260905204959 14 0 3.2 12.9 0.00 0.20 0.03 94 1016.6
20260905204445 14 330 6.4 11.3 0.00 0.20 0.03 94 1016.6
20260905203932 14 303 6.4 11.3 0.00 0.20 0.03 94 1016.5
20260905203419 14 302 3.2 11.3 0.00 0.20 0.03 94 1016.5
20260905202906 15 301 1.6 11.3 0.00 0.20 0.03 94 1016.6
20260905200815 14 292 4.8 12.9 0.00 0.20 0.03 95 1016.7
20260905200301 14 299 9.7 12.9 0.00 0.20 0.03 95 1016.7
20260905195748 14 291 8.0 11.3 0.00 0.20 0.03 95 1016.7
20260905195235 13 291 8.0 11.3 0.00 0.20 0.03 95 1016.7
20260905194723 13 298 0.0 11.3 0.00 0.20 0.03 95 1016.8
20260905194209 14 291 9.7 11.3 0.00 0.20 0.03 94 1016.8
20260905193656 14 289 3.2 11.3 0.00 0.20 0.03 94 1016.8
20260905193143 15 309 11.3 14.5 0.00 0.20 0.03 94 1016.8
20260905192630 14 301 9.7 14.5 0.00 0.20 0.03 94 1016.8
20260905192117 15 308 8.0 14.5 0.00 0.20 0.03 95 1016.8
20260905191604 15 312 4.8 14.5 0.00 0.20 0.03 95 1016.8
20260905191051 15 235 6.4 14.5 0.00 0.20 0.03 95 1016.8
20260905190538 14 309 6.4 12.9 0.00 0.20 0.03 95 1016.7
20260905185512 14 333 0.0 11.3 0.00 0.23 0.03 95 1016.8
20260905184959 14 298 3.2 11.3 0.00 0.23 0.03 96 1016.7
20260905184446 13 0 0.0 12.9 0.00 0.23 0.03 95 1016.7
20260905183934 13 319 1.6 12.9 0.00 0.23 0.03 95 1016.8
20260905183420 13 317 3.2 12.9 0.00 0.23 0.03 95 1016.8
20260905182907 13 308 1.6 9.7 0.00 0.23 0.03 95 1016.7
20260905182354 13 0 0.0 6.4 0.00 0.23 0.03 95 1016.7
20260905181843 13 0 0.0 6.4 0.00 0.23 0.03 95 1016.7
20260905180815 13 0 0.0 4.8 0.00 0.23 0.03 96 1016.7
20260905180303 13 271 0.0 4.8 0.00 0.23 0.03 96 1016.8
20260905175749 13 0 0.0 4.8 0.00 0.25 0.03 95 1016.8
20260905174723 13 0 0.0 0.0 0.00 0.25 0.03 96 1016.8
20260905174210 13 0 0.0 0.0 0.00 0.25 0.03 95 1016.8
20260905173657 13 0 0.0 0.0 0.00 0.25 0.03 96 1016.8
20260905173144 13 0 0.0 8.0 0.00 0.25 0.03 95 1016.7
20260905172631 13 0 0.0 8.0 0.00 0.25 0.03 95 1016.7
20260905171605 13 0 0.0 0.0 0.00 0.25 0.03 96 1016.6
20260905171052 13 0 0.0 0.0 0.00 0.25 0.03 96 1016.6
20260905170539 12 0 0.0 0.0 0.00 0.25 0.03 96 1016.6
20260905170026 13 0 0.0 0.0 0.00 0.25 0.03 96 1016.6
20260905165515 12 0 0.0 0.0 0.00 0.38 0.03 96 1016.6
20260905165051 12 0 0.0 0.0 0.00 0.38 0.03 96 1016.6
20260905165000 12 0 0.0 0.0 0.00 0.38 0.03 96 1016.6
20260905164447 12 0 0.0 0.0 0.00 0.38 0.03 96 1016.6
20260905163934 12 0 0.0 0.0 0.00 0.38 0.03 95 1016.7
20260905163421 12 0 0.0 0.0 0.00 0.38 0.03 95 1016.7
20260905162909 13 0 0.0 0.0 0.00 0.38 0.03 95 1016.6
20260905162355 12 0 0.0 0.0 0.00 0.38 0.03 95 1016.6
20260905161843 13 0 0.0 0.0 0.00 0.38 0.03 96 1016.6
20260905161332 12 0 0.0 0.0 0.00 0.38 0.03 95 1016.6
20260905160816 13 0 0.0 0.0 0.00 0.38 0.03 95 1016.6
20260905160303 13 0 0.0 0.0 0.00 0.38 0.03 95 1016.6
20260905155750 13 0 0.0 0.0 0.00 0.48 0.03 96 1016.6
20260905155237 13 0 0.0 0.0 0.00 0.48 0.03 95 1016.6
20260905154724 13 0 0.0 0.0 0.00 0.48 0.03 95 1016.6
20260905154211 13 0 0.0 0.0 0.00 0.48 0.03 95 1016.7
20260905153658 13 0 0.0 0.0 0.00 0.48 0.03 95 1016.6
20260905153145 13 0 0.0 0.0 0.00 0.48 0.03 95 1016.6
20260905152632 13 0 0.0 0.0 0.00 0.48 0.03 95 1016.5
20260905151606 12 0 0.0 0.0 0.00 0.48 0.03 95 1016.5
20260905151053 13 0 0.0 0.0 0.00 0.48 0.03 95 1016.5
20260905150540 13 0 0.0 0.0 0.00 0.48 0.03 95 1016.5
20260905150027 12 0 0.0 0.0 0.00 0.48 0.03 95 1016.5
20260905145514 12 0 0.0 0.0 0.00 0.56 0.03 96 1016.5
20260905145001 12 0 0.0 0.0 0.00 0.56 0.03 96 1016.5
20260905143937 12 0 0.0 0.0 0.00 0.56 0.03 96 1016.4
20260905143422 12 0 0.0 0.0 0.00 0.56 0.03 96 1016.4
20260905142910 12 0 0.0 0.0 0.00 0.56 0.03 96 1016.4
20260905142356 12 0 0.0 0.0 0.00 0.56 0.03 96 1016.3
20260905141843 12 0 0.0 0.0 0.00 0.56 0.03 96 1016.3
20260905141332 12 0 0.0 0.0 0.00 0.56 0.03 96 1016.2
20260905140817 12 0 0.0 0.0 0.00 0.56 0.03 96 1016.2
20260905140304 12 0 0.0 0.0 0.00 0.56 0.03 95 1016.3
20260905135751 12 0 0.0 0.0 0.00 0.71 0.03 95 1016.3
20260905135238 12 0 0.0 0.0 0.00 0.71 0.03 95 1016.3
20260905134725 12 0 0.0 0.0 0.00 0.71 0.03 96 1016.3
20260905134212 12 0 0.0 0.0 0.00 0.71 0.03 95 1016.2
20260905133659 12 0 0.0 0.0 0.00 0.71 0.03 96 1016.2
20260905133146 12 0 0.0 0.0 0.00 0.71 0.03 95 1016.2
20260905132633 12 0 0.0 0.0 0.00 0.71 0.03 95 1016.1
20260905131607 12 0 0.0 0.0 0.00 0.71 0.03 95 1016.1
20260905131054 12 0 0.0 0.0 0.00 0.71 0.03 95 1016.1
20260905130541 12 0 0.0 0.0 0.00 0.71 0.03 95 1016.2
20260905130028 12 0 0.0 0.0 0.00 0.71 0.03 95 1016.2
20260905125515 12 0 0.0 0.0 0.00 0.86 0.03 95 1016.1
20260905125002 12 0 0.0 0.0 0.00 0.86 0.03 95 1016.1
20260905123936 12 0 0.0 0.0 0.00 0.86 0.03 95 1016.0
20260905123423 12 0 0.0 0.0 0.00 0.86 0.03 95 1016.1
20260905122910 12 0 0.0 0.0 0.00 0.86 0.03 95 1016.1
20260905122357 12 0 0.0 0.0 0.00 0.86 0.03 95 1016.0
20260905121844 12 0 0.0 0.0 0.03 0.86 0.03 95 1016.0
20260905121331 12 0 0.0 0.0 0.03 0.86 0.03 95 1015.9
20260905120305 12 0 0.0 0.0 0.03 0.86 0.03 95 1015.9
20260905115752 12 0 0.0 0.0 0.03 1.50 0.03 95 1015.9
20260905115239 12 0 0.0 0.0 0.03 1.50 0.03 95 1015.9
20260905114726 12 0 0.0 0.0 0.03 1.50 0.03 95 1015.9
20260905114213 12 0 0.0 0.0 0.03 1.50 0.03 95 1015.9
20260905113700 12 0 0.0 0.0 0.03 1.50 0.03 95 1015.9
20260905113147 12 0 0.0 0.0 0.03 1.50 0.03 95 1015.9
20260905112634 12 0 0.0 0.0 0.03 1.50 0.03 95 1015.8
20260905112121 12 0 0.0 0.0 0.03 1.50 0.03 95 1015.8
20260905111608 12 0 0.0 0.0 0.00 1.50 0.00 95 1015.8
20260905111055 12 0 0.0 0.0 0.00 1.50 0.00 95 1015.9
20260905110542 12 0 0.0 0.0 0.00 1.50 0.00 95 1015.8
20260905110029 12 0 0.0 0.0 0.00 1.50 0.00 95 1015.8
20260905105516 12 0 0.0 0.0 0.00 1.83 0.00 95 1015.8
20260905105003 12 0 0.0 0.0 0.00 1.83 0.00 95 1015.8
20260905104450 12 0 0.0 0.0 0.00 1.83 0.00 95 1015.8
20260905103937 12 0 0.0 0.0 0.00 1.83 0.00 95 1015.8
20260905103424 12 0 0.0 0.0 0.00 1.83 0.00 95 1015.8
20260905102911 12 0 0.0 0.0 0.00 1.83 0.00 95 1015.7
20260905102358 12 0 0.0 0.0 0.00 1.83 0.00 95 1015.7
20260905101845 12 0 0.0 0.0 0.00 1.83 0.00 95 1015.7
20260905101332 12 0 0.0 0.0 0.00 1.83 0.00 95 1015.7
20260905100819 12 0 0.0 0.0 0.00 1.83 0.00 95 1015.7
20260905100306 12 0 0.0 0.0 0.00 1.83 0.00 95 1015.7
20260905095753 12 0 0.0 0.0 0.00 2.01 0.00 95 1015.7
20260905095240 12 0 0.0 0.0 0.00 2.01 0.00 95 1015.7
20260905094727 12 0 0.0 0.0 0.00 2.01 0.00 95 1015.7
20260905094214 12 0 0.0 0.0 0.00 2.01 0.00 95 1015.7
20260905093701 12 0 0.0 0.0 0.00 2.01 0.00 95 1015.7
20260905093148 12 0 0.0 0.0 0.00 2.01 0.00 95 1015.6
20260905092635 12 0 0.0 0.0 0.00 2.01 0.00 95 1015.6
20260905092122 12 0 0.0 0.0 0.00 2.01 0.00 95 1015.7
20260905091610 12 0 0.0 0.0 0.00 2.01 0.00 95 1015.6
20260905091056 12 0 0.0 0.0 0.00 2.01 0.00 95 1015.5
20260905090543 12 0 0.0 0.0 0.00 2.01 0.00 95 1015.5
20260905090030 12 0 0.0 0.0 0.00 2.01 0.00 95 1015.5
20260905085517 12 0 0.0 0.0 0.00 2.06 0.00 95 1015.4
20260905085004 12 0 0.0 0.0 0.00 2.06 0.00 95 1015.5
20260905084451 12 0 0.0 0.0 0.00 2.06 0.00 95 1015.5
20260905083424 12 0 0.0 0.0 0.00 2.06 0.00 95 1015.5
20260905082912 12 0 0.0 0.0 0.00 2.06 0.00 95 1015.4
20260905082359 12 0 0.0 0.0 0.00 2.06 0.00 95 1015.4
20260905081846 12 0 0.0 0.0 0.00 2.06 0.00 95 1015.4
20260905081332 12 0 0.0 0.0 0.00 2.06 0.00 95 1015.3
20260905080820 12 0 0.0 0.0 0.00 2.06 0.00 95 1015.3
20260905080306 12 0 0.0 0.0 0.00 2.06 0.00 95 1015.3
20260905075754 12 0 0.0 0.0 0.00 2.11 0.00 95 1015.2
20260905075240 12 0 0.0 0.0 0.00 2.11 2.06 95 1015.1
20260905074729 12 0 0.0 0.0 0.00 2.11 2.06 95 1015.1
20260905073701 12 0 0.0 0.0 0.00 2.11 2.06 94 1015.1
20260905073149 12 0 0.0 0.0 0.00 2.11 2.06 94 1015.1
20260905072636 12 0 0.0 0.0 0.00 2.11 2.06 94 1015.1
20260905071609 12 0 0.0 0.0 0.00 2.11 2.06 94 1014.9
20260905071056 12 0 0.0 0.0 0.00 2.11 2.06 94 1014.9
20260905070543 12 0 0.0 0.0 0.00 2.11 2.06 94 1014.9
20260905070030 12 0 0.0 0.0 0.00 2.11 2.06 94 1014.9
20260905065517 12 0 0.0 0.0 0.00 2.64 2.06 94 1014.8
20260905065004 12 0 0.0 0.0 0.00 2.64 2.06 94 1014.8
20260905064451 12 0 0.0 0.0 0.00 2.64 2.06 94 1014.8
20260905063938 12 0 0.0 0.0 0.00 2.64 2.06 94 1014.8
20260905063425 12 0 0.0 0.0 0.00 2.64 2.06 94 1014.7
20260905062912 12 0 0.0 0.0 0.00 2.64 2.06 94 1014.7
20260905062359 12 0 0.0 0.0 0.00 2.64 2.06 94 1014.7
20260905061846 12 0 0.0 0.0 0.00 2.64 2.06 94 1014.7
20260905061333 12 0 0.0 0.0 0.00 2.64 2.06 94 1014.7
20260905060821 12 0 0.0 0.0 0.00 2.64 2.06 94 1014.6
20260905055754 12 0 0.0 0.0 0.00 2.97 2.06 94 1014.6
20260905055241 12 0 0.0 0.0 0.00 2.97 2.06 94 1014.7
20260905054728 12 0 0.0 0.0 0.00 2.97 2.06 94 1014.7
20260905054215 12 0 0.0 0.0 0.00 2.97 2.06 94 1014.6
20260905053702 12 0 0.0 0.0 0.00 2.97 2.06 94 1014.6
20260905053149 12 0 0.0 0.0 0.00 2.97 2.06 94 1014.6
20260905052636 12 0 0.0 0.0 0.00 2.97 2.06 94 1014.6
20260905052123 12 0 0.0 0.0 0.00 2.97 2.06 94 1014.6
20260905051610 12 0 0.0 0.0 0.00 2.97 2.06 94 1014.6
20260905051058 12 0 0.0 0.0 0.00 2.97 2.06 94 1014.5
20260905050544 12 0 0.0 0.0 0.00 2.97 2.06 94 1014.5
20260905050031 12 0 0.0 0.0 0.00 2.97 2.06 94 1014.5
20260905045005 12 0 0.0 0.0 0.00 3.20 2.06 94 1014.3
20260905044452 12 0 0.0 0.0 0.00 3.20 2.06 94 1014.3
20260905043939 13 0 0.0 0.0 0.00 3.20 2.06 94 1014.3
20260905043426 13 0 0.0 0.0 0.00 3.20 2.06 93 1014.3
20260905042913 12 0 0.0 0.0 0.00 3.20 2.06 93 1014.2
20260905042400 13 0 0.0 0.0 0.00 3.20 2.06 93 1014.2
20260905041847 12 0 0.0 0.0 0.00 3.20 2.06 93 1014.2
20260905041334 13 0 0.0 0.0 0.00 3.20 2.06 93 1014.1
20260905040821 12 0 0.0 0.0 0.00 3.20 2.06 93 1014.1
20260905040308 13 0 0.0 0.0 0.00 3.20 2.06 93 1014.1
20260905035756 13 0 0.0 0.0 0.00 3.48 2.06 93 1014.1
20260905035242 13 0 0.0 0.0 0.00 3.48 2.06 93 1014.1
20260905034729 13 0 0.0 0.0 0.03 3.48 2.06 93 1014.0
20260905034216 13 0 0.0 0.0 0.03 3.48 2.06 93 1013.9
20260905033703 13 0 0.0 0.0 0.08 3.48 2.06 93 1013.9
20260905033150 13 0 0.0 0.0 0.08 3.48 2.06 93 1013.8
20260905032637 13 0 0.0 0.0 0.15 3.48 2.06 93 1013.7
20260905032124 13 0 0.0 0.0 0.15 3.48 2.06 93 1013.7
20260905031058 13 0 0.0 0.0 0.15 3.48 2.06 93 1013.6
20260905030545 13 0 0.0 0.0 0.15 3.48 2.06 93 1013.6
20260905030033 13 0 0.0 6.4 0.15 3.48 2.06 92 1013.6
20260905025519 13 0 0.0 6.4 0.15 3.48 2.06 92 1013.6
20260905025006 13 0 0.0 6.4 0.15 3.48 2.06 92 1013.6
20260905024453 13 0 0.0 0.0 0.13 3.48 2.03 92 1013.5
20260905023940 14 0 0.0 6.4 0.08 3.48 2.03 92 1013.6
20260905023427 14 21 0.0 6.4 0.08 3.48 2.01 92 1013.6
20260905022914 14 74 0.0 4.8 0.00 3.48 1.98 92 1013.6
20260905022401 14 0 0.0 0.0 0.00 3.48 1.91 92 1013.6
20260905021848 14 0 0.0 0.0 0.00 3.48 1.91 92 1013.5
20260905020823 14 74 0.0 8.0 0.00 3.48 1.91 92 1013.4
20260905020309 14 61 1.6 8.0 0.00 3.48 1.91 91 1013.4
20260905015756 14 357 3.2 8.0 0.00 3.61 1.91 91 1013.3
20260905015243 14 64 0.0 8.0 0.00 3.61 1.91 91 1013.3
20260905014730 15 0 0.0 0.0 0.00 3.61 1.91 91 1013.2
20260905014217 15 0 0.0 0.0 0.00 3.61 1.91 91 1013.1
20260905013704 15 0 0.0 0.0 0.00 3.61 1.91 91 1013.1
20260905012638 15 0 0.0 0.0 0.00 3.61 1.91 91 1013.0
20260905012125 16 0 0.0 0.0 0.00 3.61 1.91 91 1013.0
20260905011612 16 0 0.0 0.0 0.00 3.61 1.91 91 1013.0
20260905011059 16 0 0.0 0.0 0.00 3.61 1.91 91 1013.0
20260905010546 16 0 0.0 0.0 0.00 3.61 1.91 91 1012.9
20260905010033 16 0 0.0 0.0 0.00 3.61 1.91 91 1012.9
20260905005520 16 0 0.0 0.0 0.00 3.76 1.91 91 1012.8
20260905005007 16 0 0.0 6.4 0.00 3.76 1.91 91 1012.7
20260905004454 17 0 0.0 6.4 0.00 3.76 1.91 92 1012.7
20260905003941 16 180 0.0 6.4 0.00 3.76 1.91 92 1012.6
20260905003428 17 0 0.0 0.0 0.00 3.76 1.91 92 1012.5
20260905002915 16 0 0.0 0.0 0.00 3.76 1.91 91 1012.5
20260905002402 17 228 0.0 6.4 0.00 3.76 1.91 91 1012.5
20260905001849 17 0 0.0 6.4 0.00 3.76 1.91 92 1012.5
20260905000823 17 256 1.6 12.9 0.00 3.76 1.91 92 1012.5
20260905000310 17 264 0.0 12.9 0.00 3.76 1.91 93 1012.4
20260904235757 16 257 0.0 12.9 0.00 3.78 1.91 93 1012.4
20260904235244 16 298 0.0 8.0 0.00 3.78 1.91 93 1012.3
20260904234218 16 313 9.7 14.5 0.03 3.78 1.91 93 1012.2
20260904233705 17 235 9.7 14.5 0.03 3.78 1.91 93 1012.3
20260904233152 17 287 3.2 12.9 0.03 3.78 1.91 93 1012.2
20260904232639 17 271 6.4 14.5 0.03 3.78 1.91 93 1012.2
20260904232126 17 0 0.0 14.5 0.03 3.78 1.91 94 1012.1
20260904231613 16 0 0.0 14.5 0.03 3.78 1.91 94 1012.1
20260904231100 16 273 4.8 17.7 0.03 3.78 1.91 93 1012.1
20260904230547 16 236 3.2 17.7 0.03 3.78 1.91 94 1012.2
20260904230034 16 252 8.0 17.7 0.03 3.78 1.91 94 1012.2
20260904225521 16 275 9.7 16.1 0.03 3.76 1.91 94 1012.1
20260904225008 15 329 9.7 16.1 0.03 3.76 1.91 94 1012.1
20260904224455 15 0 3.2 14.5 0.00 3.76 1.91 94 1012.2
20260904223942 15 252 4.8 14.5 0.00 3.76 1.88 93 1012.2
20260904223429 16 254 0.0 14.5 0.00 3.76 1.88 93 1012.1
20260904222916 16 257 1.6 9.7 0.00 3.76 1.88 94 1012.1